GFSNE_prec_cthk_306.txt.gz
RH
97 96 95 93 93 78 70 62 58 56 56 56 56 58 70 75 92 95 94 95 95 94 98 89 75 66 57 53 53 45 36 33 58 59 61 64 65 68
97 97 97 96 94 87 77 70 62 66 62 65 59 57 58 64 76 89 93 95 92 89 91 82 98 74 71 63 60 52 40 37 52 53 63 68 73 76
97 98 97 97 94 91 80 75 73 72 72 76 70 67 62 61 65 76 88 95 91 92 88 96 97 91 83 77 69 58 45 46 44 48 58 67 72 74
96 97 97 97 95 97 96 80 86 75 83 75 72 73 67 64 67 92 99 95 96 98 98 95 98 97 86 79 77 69 53 50 49 47 55 65 71 72
93 91 95 97 97 91 94 88 81 88 85 76 73 75 73 69 65 78 95 97 91 98 96 95 94 96 96 79 78 71 61 57 60 57 57 66 72 71
58 84 81 90 97 90 91 87 89 95 86 78 75 70 68 73 68 69 77 85 91 94 89 93 96 97 96 92 84 78 68 64 62 65 64 72 78 79
42 49 76 72 81 89 96 92 90 91 82 79 77 72 68 66 66 70 67 74 88 89 82 92 94 94 97 94 96 81 76 77 74 73 72 74 78 84
36 38 47 62 71 74 83 91 91 83 81 84 76 70 67 66 66 74 65 70 78 85 81 81 94 97 98 97 99 92 81 80 84 84 89 83 86 89
42 43 43 46 60 67 70 76 79 80 83 77 72 72 70 72 73 74 73 70 72 74 77 80 87 96 98 99 99 94 90 90 89 88 92 89 91 91
51 48 53 52 52 60 66 72 72 70 72 76 74 69 70 75 68 69 76 73 69 66 75 76 79 85 94 96 98 99 97 93 94 92 92 93 97 92
54 53 50 52 52 52 55 68 71 81 66 72 69 64 66 64 61 57 58 64 68 62 63 68 70 79 77 85 89 92 92 87 93 95 90 91 93 89
60 57 55 52 52 52 52 53 63 70 78 72 65 70 63 63 65 64 62 61 61 63 64 65 66 70 75 75 72 75 77 78 87 89 87 85 79 76
66 63 59 56 54 53 52 51 50 60 64 70 76 67 63 72 65 60 66 66 65 65 66 63 64 61 65 65 68 65 66 65 62 63 67 67 66 68
70 68 64 62 59 56 54 52 51 50 56 58 62 65 68 62 59 64 64 64 65 64 62 62 59 60 61 60 62 62 62 60 57 59 60 57 61 65
75 72 70 66 62 60 56 55 54 51 50 52 56 58 63 60 65 62 58 60 56 60 62 62 61 60 58 58 59 56 57 63 63 63 62 63 64 59
86 79 75 72 69 65 62 59 58 55 52 51 50 53 59 57 58 54 60 60 58 58 59 60 59 59 58 59 60 58 60 60 61 63 62 60 61 63
94 90 85 80 76 73 70 66 62 59 57 55 54 54 52 56 57 55 55 53 51 51 51 53 53 55 56 57 58 59 59 59 59 60 58 56 57 58
95 94 93 88 85 82 75 71 68 66 65 63 61 60 59 56 54 53 53 52 51 51 49 49 48 48 48 51 54 53 53 54 54 54 52 52 52 52
95 96 97 96 96 92 87 83 79 75 74 73 71 69 66 63 59 58 56 55 54 54 52 51 49 48 47 47 45 45 45 45 45 45 45 44 42 43
96 97 97 97 98 98 98 96 92 87 84 80 77 75 74 72 69 67 65 63 61 59 57 56 54 53 52 51 49 46 45 42 41 39 39 37 36 36
97 97 98 98 98 98 98 98 97 95 93 91 89 86 84 81 79 77 75 72 69 65 61 59 57 56 54 52 52 50 46 46 44 43 41 40 38 36
97 98 98 98 98 98 98 98 98 97 98 98 97 96 94 90 87 84 80 77 73 70 67 65 62 59 55 54 53 52 51 48 48 48 46 44 43 42
96 98 98 98 98 98 98 98 98 98 98 98 98 97 95 92 94 92 90 87 83 79 77 72 68 65 62 60 58 57 55 54 52 50 48 48 49 49

GFSNE_prec_cthk_309.txt.gz
RH
96 97 97 95 95 92 86 84 73 65 58 56 57 56 60 64 68 70 69 71 82 90 91 87 81 68 60 53 52 50 44 37 33 34 33 32 42 50
95 97 97 95 95 94 91 87 75 66 63 59 56 58 58 64 70 70 66 68 78 86 91 89 90 81 69 62 55 52 54 45 39 35 39 32 42 61
87 97 97 97 95 96 95 91 81 71 66 64 60 62 59 58 55 66 71 76 84 87 86 90 90 85 80 68 57 55 54 53 47 44 44 35 47 67
50 91 91 97 97 97 96 94 86 74 78 69 67 67 65 60 59 62 71 74 72 80 87 85 95 88 79 91 76 62 59 55 56 54 51 39 52 65
33 51 88 92 97 96 97 92 83 82 93 78 78 74 70 69 65 62 62 60 70 73 87 94 95 98 97 93 88 76 70 63 64 61 57 51 46 54
32 33 58 83 96 95 97 97 97 97 91 90 81 78 75 72 70 68 67 66 73 84 94 96 96 97 94 94 89 87 75 75 74 70 64 62 49 51
46 40 39 63 82 93 93 97 97 95 96 90 87 79 78 76 76 72 69 67 74 90 90 96 95 94 96 96 95 99 98 86 85 82 73 65 58 55
56 54 53 54 69 80 90 92 93 92 97 97 89 81 78 78 76 73 70 69 66 73 80 90 95 91 94 97 98 97 98 96 93 90 82 74 65 64
60 58 56 57 64 77 84 91 90 92 96 96 90 83 78 73 73 69 68 65 66 66 69 81 88 91 87 98 99 98 94 97 97 92 88 84 75 66
63 60 58 56 59 65 75 84 93 85 85 79 86 82 79 75 72 73 71 69 66 67 67 69 78 87 85 84 97 98 98 99 96 92 90 88 85 79
68 64 61 58 58 64 66 74 83 88 82 84 75 70 70 70 69 68 70 70 69 67 65 69 69 79 82 80 89 98 99 98 98 98 99 93 87 86
73 69 64 61 58 58 63 63 73 80 83 74 66 72 62 62 68 67 71 68 64 60 57 60 66 73 76 81 81 84 92 96 98 98 98 98 92 91
75 71 66 63 60 57 57 63 61 72 79 78 78 62 66 66 59 57 59 63 61 59 58 56 57 60 65 71 70 74 76 77 87 91 93 95 96 94
82 76 72 67 63 59 58 57 58 60 68 70 72 73 68 59 60 66 58 59 59 64 61 58 58 58 59 61 61 63 66 67 71 73 76 84 86 84
90 83 79 74 69 64 61 58 56 53 54 60 67 68 69 70 68 63 62 60 61 62 64 64 63 62 60 59 58 59 59 58 58 59 63 70 69 68
96 91 85 81 76 73 66 62 59 56 58 54 59 62 64 67 64 69 65 57 63 65 67 67 62 60 61 58 57 56 54 58 59 59 59 59 58 56
97 96 91 90 85 77 71 67 63 62 60 57 56 56 59 60 64 63 63 63 61 59 59 61 66 66 61 58 60 58 55 55 55 53 54 53 53 54
96 96 97 96 92 87 83 77 72 70 68 65 63 61 58 55 54 58 58 57 54 54 55 53 52 56 60 60 60 57 57 56 55 54 53 51 51 51
95 96 97 97 97 96 93 89 84 79 76 74 71 69 67 63 60 56 55 61 59 57 57 56 54 53 51 50 51 52 53 52 51 51 51 51 50 49
94 96 97 98 98 97 96 95 92 89 86 82 79 77 74 71 68 65 61 58 56 58 57 57 56 57 56 53 50 48 47 45 45 44 42 42 41 41
95 96 97 98 98 98 98 98 97 97 97 94 90 86 82 77 74 70 68 65 62 61 59 58 58 56 55 54 51 49 46 46 44 42 40 38 37 35
97 97 97 98 98 98 98 98 98 98 98 97 97 94 90 86 83 79 75 73 71 70 67 63 59 57 56 54 54 52 49 48 47 47 45 44 42 41
93 98 98 97 98 98 98 98 98 98 98 98 97 96 95 94 93 91 87 83 79 76 72 68 66 63 59 57 55 53 50 49 48 46 46 46 44 43

GFSNE_prec_cthk_312.txt.gz
RH
45 60 91 93 93 93 95 95 94 86 80 68 61 58 57 68 74 76 58 72 70 76 80 69 74 76 74 68 55 48 46 43 40 36 32 29 28 29
30 54 77 97 95 96 97 97 94 95 89 72 65 62 61 69 68 70 66 66 67 66 68 64 62 66 74 77 65 48 48 46 44 41 38 33 30 30
27 32 67 96 97 97 96 96 98 94 87 76 69 64 63 60 62 68 71 70 68 67 63 56 57 69 75 79 72 54 46 48 46 44 42 38 33 33
35 30 37 86 98 98 96 96 98 96 84 78 72 67 65 66 64 68 77 77 74 69 66 60 67 76 79 82 73 60 46 46 46 45 46 44 39 36
50 46 39 58 96 98 98 97 98 94 85 81 75 72 70 62 59 66 70 68 70 68 63 60 65 74 78 78 72 68 56 46 48 46 48 49 45 45
59 57 56 51 92 97 98 97 96 94 86 79 78 73 77 70 68 60 58 55 55 59 57 59 61 67 73 77 79 76 71 59 54 51 49 54 53 51
65 63 61 60 88 98 98 97 95 96 97 84 87 82 77 78 68 67 67 59 54 53 56 62 60 60 76 82 85 88 84 77 68 59 54 55 56 57
70 69 64 63 73 95 98 98 98 97 97 98 96 94 89 84 78 75 69 68 60 58 62 62 63 77 83 89 91 91 89 83 79 72 65 62 62 64
75 72 68 65 66 86 97 98 98 97 96 93 97 95 90 87 81 73 69 67 66 67 65 66 70 87 88 92 91 97 95 89 86 86 77 70 68 71
79 76 72 67 65 76 90 98 97 97 97 95 97 96 94 88 85 79 72 71 71 68 66 67 82 82 91 91 91 97 97 97 96 96 92 80 80 80
85 80 75 71 67 70 81 92 96 96 95 97 92 93 90 86 85 79 73 66 67 67 67 69 77 76 84 83 91 97 98 99 98 98 99 89 91 89
89 84 79 73 69 69 77 82 92 91 95 86 90 86 84 82 77 69 70 66 61 60 62 66 66 65 73 82 87 91 94 98 98 99 98 97 96 91
92 87 81 75 71 69 71 80 79 90 88 90 80 82 80 75 72 73 69 67 65 65 64 60 61 63 63 70 80 77 82 90 98 97 98 97 96 96
94 89 83 78 74 70 69 71 76 79 86 81 82 75 72 72 68 65 68 65 67 67 62 57 53 52 57 60 65 69 73 76 83 93 96 97 97 99
94 93 88 83 78 73 70 68 69 74 77 80 78 78 77 67 62 64 61 58 58 56 54 52 51 51 50 52 56 60 63 68 71 73 81 85 91 92
98 98 95 88 80 77 73 70 67 64 70 74 80 77 76 71 69 57 54 58 58 61 57 51 52 49 49 52 54 56 59 60 60 59 62 68 70 75
98 98 97 92 89 83 77 74 71 68 68 68 73 75 74 76 71 67 67 56 52 58 58 56 57 54 56 58 59 60 57 55 57 59 59 57 55 57
97 96 97 97 96 92 86 82 79 76 73 72 68 66 71 68 69 68 67 62 63 56 56 59 59 59 62 58 56 57 56 54 53 51 48 49 49 51
95 96 96 97 97 97 93 89 84 81 79 76 74 71 66 65 64 64 66 62 66 58 60 62 59 60 59 66 65 61 56 55 53 52 49 48 47 46
95 96 97 97 97 98 98 97 93 89 85 82 80 75 69 65 62 62 60 59 63 61 59 58 57 57 57 53 56 60 59 57 55 54 54 54 51 49
96 97 98 98 98 98 98 98 97 97 95 90 85 80 75 70 66 63 61 59 58 57 60 62 61 60 57 54 52 51 51 50 50 49 50 49 48 47
94 98 99 99 98 98 98 98 98 97 97 95 93 89 84 79 75 72 69 66 64 62 60 58 57 56 54 54 55 54 53 54 52 51 47 45 44 43
78 88 94 97 98 98 98 98 98 98 96 95 94 94 91 88 86 83 79 73 70 67 65 62 60 58 55 54 52 50 50 50 50 49 48 48 47 46

GFSNE_prec_cthk_315.txt.gz
RH
27 25 36 48 63 83 90 88 89 89 94 89 81 67 58 54 60 61 51 74 74 86 92 92 95 93 91 84 74 60 51 47 42 37 33 28 25 24
39 34 28 38 60 83 94 95 94 93 96 93 86 77 65 59 83 67 64 70 72 84 91 98 92 92 88 81 80 74 58 50 47 40 37 34 29 27
51 51 46 36 56 82 96 97 95 95 97 95 89 82 73 61 85 82 69 64 77 96 90 94 90 87 84 79 78 77 71 57 49 43 40 38 36 32
57 59 58 56 50 85 97 97 96 96 97 97 95 88 76 67 70 97 87 81 74 82 88 94 88 80 78 75 70 67 70 62 56 46 42 40 40 37
64 65 65 62 62 84 98 98 97 97 97 98 98 94 79 70 69 81 99 98 89 85 79 78 71 67 67 67 63 59 58 61 59 54 41 41 42 42
77 74 70 68 66 91 98 98 98 98 98 98 95 93 84 74 81 79 84 99 99 81 74 71 66 61 59 56 53 52 53 61 59 57 45 39 42 43
85 80 77 74 72 97 98 98 98 98 98 96 93 87 81 77 79 93 87 78 74 72 65 62 62 61 58 54 49 45 57 63 65 60 53 41 41 44
92 83 79 77 75 98 98 98 98 98 98 96 93 93 90 85 74 71 73 74 78 72 72 66 65 64 58 54 48 48 53 66 69 63 59 50 44 46
90 84 79 78 77 97 97 98 98 97 98 98 94 92 97 92 87 73 67 64 64 62 58 56 60 61 61 52 51 48 49 68 70 70 64 64 54 50
90 84 79 78 80 97 98 98 98 98 98 98 97 97 97 97 89 82 79 81 67 63 59 60 60 60 59 57 58 58 68 74 73 76 76 77 73 62
89 84 81 78 80 96 98 98 98 98 98 98 97 97 97 97 94 92 82 74 72 70 68 65 64 63 61 62 68 69 79 77 82 85 88 89 85 79
89 84 82 79 78 93 98 98 98 98 98 98 97 98 98 97 94 94 85 79 74 70 70 68 66 66 67 70 73 74 82 82 90 91 93 92 92 94
91 85 81 78 76 88 96 97 97 98 98 95 96 97 94 94 94 86 81 73 71 71 67 69 69 65 68 75 76 77 81 87 95 97 99 97 97 96
94 89 84 80 76 79 85 91 95 97 95 93 91 89 92 86 84 81 78 71 64 64 64 61 59 60 66 69 74 76 76 82 92 97 98 99 99 99
95 94 89 81 78 76 81 85 91 92 92 92 89 86 81 82 83 78 73 70 68 64 62 60 56 56 59 62 62 61 70 75 84 88 96 98 98 98
96 97 94 89 82 78 78 82 85 90 90 89 89 85 83 80 78 76 72 69 67 64 62 62 58 57 54 53 55 56 54 59 72 74 81 84 90 92
98 98 98 95 91 84 81 79 80 86 85 85 84 82 79 75 76 70 66 65 61 59 61 61 57 53 51 48 47 47 50 49 54 61 67 68 73 81
98 97 97 98 94 91 86 83 82 83 85 85 81 79 75 76 72 69 67 59 56 57 55 53 52 52 48 45 46 46 45 44 43 47 50 57 61 62
97 97 97 97 98 96 92 88 84 82 82 79 79 77 74 70 71 71 70 65 63 58 54 52 55 53 49 49 48 46 46 47 46 45 45 45 48 51
96 97 97 98 98 98 98 95 91 88 86 82 77 72 71 70 70 70 71 69 66 63 63 60 56 53 51 52 51 52 52 51 50 50 51 52 50 50
96 97 98 98 98 98 98 98 98 95 91 86 82 77 73 73 71 68 66 64 67 67 63 59 58 57 59 56 57 57 57 55 54 53 53 52 50 49
82 92 97 98 98 98 98 98 98 97 95 92 88 83 77 74 72 70 67 66 63 61 62 64 62 59 56 56 56 59 59 56 57 56 53 53 53 53
46 58 74 87 94 97 98 97 97 95 94 93 90 87 84 80 75 71 69 67 65 62 59 57 55 57 59 57 55 56 55 54 53 52 53 52 52 54